| time (UTC) | temp F | wind direction | speed MPH | gust MPH | rain 1hr in | rain 24hr in | rain mn in | humidity % | barometer mb |
| 20260508121114 | 51 | 318 | 0.0 | 0.0 | 0.00 | 0.00 | 0.00 | 69 | 1016.2 |
| 20260508120622 | 50 | 318 | 0.0 | 0.0 | 0.00 | 0.00 | 0.00 | 71 | 1016.1 |
| 20260508120132 | 49 | 318 | 0.0 | 0.0 | 0.00 | 0.00 | 0.00 | 72 | 1016.2 |
| 20260508115620 | 48 | 345 | 0.0 | 0.0 | 0.00 | 0.00 | 0.00 | 72 | 1016.1 |
| 20260508115130 | 47 | 345 | 0.0 | 0.0 | 0.00 | 0.00 | 0.00 | 74 | 1016.1 |
| 20260508114619 | 47 | 345 | 0.0 | 0.0 | 0.00 | 0.00 | 0.00 | 75 | 1016.1 |
| 20260508114127 | 46 | 345 | 0.0 | 0.0 | 0.00 | 0.00 | 0.00 | 76 | 1016.1 |
| 20260508113617 | 46 | 345 | 0.0 | 0.0 | 0.00 | 0.00 | 0.00 | 77 | 1016.0 |
| 20260508113126 | 45 | 345 | 0.0 | 0.0 | 0.00 | 0.00 | 0.00 | 76 | 1016.0 |
| 20260508112614 | 45 | 345 | 0.0 | 0.0 | 0.00 | 0.00 | 0.00 | 77 | 1015.9 |
| 20260508112123 | 45 | 345 | 0.0 | 0.0 | 0.00 | 0.00 | 0.00 | 77 | 1015.9 |
| 20260508111633 | 44 | 345 | 0.0 | 0.0 | 0.00 | 0.00 | 0.00 | 77 | 1015.7 |
| 20260508111120 | 44 | 345 | 0.0 | 1.0 | 0.00 | 0.00 | 0.00 | 78 | 1015.6 |
| 20260508110626 | 43 | 345 | 0.0 | 1.0 | 0.00 | 0.00 | 0.00 | 78 | 1015.6 |
| 20260508110135 | 43 | 345 | 0.0 | 0.0 | 0.00 | 0.00 | 0.00 | 77 | 1015.5 |
| 20260508105622 | 44 | 345 | 0.0 | 0.0 | 0.00 | 0.00 | 0.00 | 76 | 1015.4 |
| 20260508105131 | 43 | 345 | 0.0 | 0.0 | 0.00 | 0.00 | 0.00 | 78 | 1015.4 |
| 20260508104616 | 42 | 345 | 0.0 | 0.0 | 0.00 | 0.00 | 0.00 | 78 | 1015.3 |
| 20260508104125 | 42 | 345 | 0.0 | 0.0 | 0.00 | 0.00 | 0.00 | 77 | 1015.2 |
| 20260508103635 | 43 | 345 | 0.0 | 0.0 | 0.00 | 0.00 | 0.00 | 77 | 1015.2 |
| 20260508103142 | 43 | 345 | 0.0 | 0.0 | 0.00 | 0.00 | 0.00 | 76 | 1015.3 |
| 20260508102631 | 43 | 345 | 0.0 | 0.0 | 0.00 | 0.00 | 0.00 | 76 | 1015.3 |
| 20260508102120 | 44 | 345 | 0.0 | 0.0 | 0.00 | 0.00 | 0.00 | 75 | 1015.3 |
| 20260508101629 | 44 | 345 | 0.0 | 0.0 | 0.00 | 0.00 | 0.00 | 76 | 1015.2 |
| 20260508101117 | 43 | 345 | 0.0 | 0.0 | 0.00 | 0.00 | 0.00 | 76 | 1015.2 |
| 20260508100627 | 43 | 345 | 0.0 | 0.0 | 0.00 | 0.00 | 0.00 | 75 | 1015.2 |
| 20260508100116 | 44 | 345 | 0.0 | 0.0 | 0.00 | 0.00 | 0.00 | 74 | 1015.1 |
| 20260508095625 | 44 | 345 | 0.0 | 0.0 | 0.00 | 0.00 | 0.00 | 76 | 1015.1 |
| 20260508095132 | 43 | 345 | 0.0 | 0.0 | 0.00 | 0.00 | 0.00 | 76 | 1015.1 |
| 20260508094622 | 44 | 345 | 0.0 | 0.0 | 0.00 | 0.00 | 0.00 | 77 | 1014.9 |
| 20260508094126 | 43 | 345 | 0.0 | 0.0 | 0.00 | 0.00 | 0.00 | 76 | 1014.9 |
| 20260508093615 | 44 | 345 | 0.0 | 0.0 | 0.00 | 0.00 | 0.00 | 76 | 1014.8 |
| 20260508093125 | 44 | 345 | 0.0 | 0.0 | 0.00 | 0.00 | 0.00 | 75 | 1014.8 |
| 20260508092614 | 44 | 345 | 0.0 | 0.0 | 0.00 | 0.00 | 0.00 | 74 | 1014.8 |
| 20260508092121 | 45 | 345 | 0.0 | 0.0 | 0.00 | 0.00 | 0.00 | 73 | 1014.8 |
| 20260508091630 | 45 | 345 | 0.0 | 0.0 | 0.00 | 0.00 | 0.00 | 73 | 1014.9 |
| 20260508091119 | 45 | 345 | 0.0 | 0.0 | 0.00 | 0.00 | 0.00 | 71 | 1014.8 |
| 20260508090628 | 46 | 345 | 0.0 | 0.0 | 0.00 | 0.00 | 0.00 | 70 | 1014.8 |
| 20260508090116 | 46 | 345 | 0.0 | 0.0 | 0.00 | 0.00 | 0.00 | 70 | 1014.7 |
| 20260508085624 | 46 | 345 | 0.0 | 0.0 | 0.00 | 0.00 | 0.00 | 70 | 1014.6 |
| 20260508085114 | 46 | 345 | 0.0 | 0.0 | 0.00 | 0.00 | 0.00 | 69 | 1014.5 |
| 20260508084622 | 46 | 345 | 0.0 | 0.0 | 0.00 | 0.00 | 0.00 | 69 | 1014.6 |
| 20260508084131 | 46 | 345 | 0.0 | 0.0 | 0.00 | 0.00 | 0.00 | 69 | 1014.5 |
| 20260508083638 | 46 | 345 | 0.0 | 0.0 | 0.00 | 0.00 | 0.00 | 68 | 1014.5 |
| 20260508083146 | 46 | 345 | 0.0 | 0.0 | 0.00 | 0.00 | 0.00 | 69 | 1014.4 |
| 20260508082614 | 47 | 347 | 0.0 | 0.0 | 0.00 | 0.00 | 0.00 | 68 | 1014.3 |
| 20260508082120 | 47 | 347 | 0.0 | 2.0 | 0.00 | 0.00 | 0.00 | 68 | 1014.2 |
| 20260508081629 | 47 | 355 | 0.0 | 2.0 | 0.00 | 0.00 | 0.00 | 67 | 1014.2 |
| 20260508081117 | 47 | 3 | 0.0 | 2.0 | 0.00 | 0.00 | 0.00 | 68 | 1014.1 |
| 20260508080622 | 48 | 355 | 0.0 | 2.0 | 0.00 | 0.00 | 0.00 | 67 | 1014.1 |
| 20260508080132 | 48 | 359 | 0.0 | 2.0 | 0.00 | 0.00 | 0.00 | 67 | 1014.1 |
| 20260508075620 | 48 | 9 | 0.0 | 1.0 | 0.00 | 0.01 | 0.00 | 67 | 1013.9 |
| 20260508075130 | 48 | 5 | 0.0 | 3.0 | 0.00 | 0.01 | 0.00 | 67 | 1013.9 |
| 20260508074617 | 48 | 10 | 1.0 | 3.0 | 0.00 | 0.01 | 0.00 | 67 | 1013.8 |
| 20260508074146 | 48 | 356 | 0.0 | 3.0 | 0.00 | 0.01 | 0.00 | 68 | 1013.7 |
| 20260508073614 | 48 | 10 | 1.0 | 3.0 | 0.00 | 0.01 | 0.00 | 67 | 1013.6 |
| 20260508073142 | 48 | 17 | 0.0 | 2.0 | 0.00 | 0.01 | 0.00 | 68 | 1013.5 |
| 20260508072629 | 49 | 357 | 0.0 | 4.0 | 0.00 | 0.01 | 0.00 | 68 | 1013.3 |
| 20260508072137 | 49 | 1 | 1.0 | 4.0 | 0.00 | 0.01 | 0.00 | 68 | 1013.3 |
| 20260508071120 | 49 | 358 | 1.0 | 4.0 | 0.00 | 0.01 | 0.00 | 69 | 1013.1 |
| 20260508070629 | 48 | 3 | 2.0 | 4.0 | 0.00 | 0.01 | 0.00 | 71 | 1013.1 |
| 20260508070118 | 48 | 2 | 0.0 | 4.0 | 0.00 | 0.01 | 0.00 | 74 | 1013.1 |
| 20260508065628 | 48 | 357 | 1.0 | 6.0 | 0.00 | 0.01 | 0.00 | 76 | 1013.0 |
| 20260508065116 | 48 | 8 | 1.0 | 6.0 | 0.00 | 0.01 | 0.00 | 79 | 1012.9 |
| 20260508064626 | 48 | 327 | 0.0 | 0.0 | 0.00 | 0.01 | 0.00 | 79 | 1012.9 |
| 20260508064115 | 48 | 312 | 0.0 | 0.0 | 0.00 | 0.01 | 0.00 | 79 | 1012.9 |
| 20260508063645 | 49 | 312 | 0.0 | 0.0 | 0.00 | 0.01 | 0.00 | 78 | 1012.9 |
| 20260508063133 | 49 | 312 | 0.0 | 0.0 | 0.00 | 0.01 | 0.00 | 78 | 1012.9 |
| 20260508062622 | 49 | 312 | 0.0 | 0.0 | 0.00 | 0.01 | 0.00 | 78 | 1012.8 |
| 20260508062129 | 49 | 312 | 0.0 | 0.0 | 0.00 | 0.01 | 0.00 | 78 | 1012.9 |
| 20260508061619 | 50 | 312 | 0.0 | 0.0 | 0.00 | 0.01 | 0.00 | 78 | 1012.8 |
| 20260508061147 | 50 | 312 | 0.0 | 0.0 | 0.00 | 0.01 | 0.00 | 77 | 1012.7 |
| 20260508060636 | 50 | 312 | 0.0 | 0.0 | 0.00 | 0.01 | 0.00 | 78 | 1012.7 |
| 20260508060123 | 50 | 311 | 0.0 | 0.0 | 0.00 | 0.01 | 0.00 | 79 | 1012.8 |
| 20260508055633 | 50 | 318 | 0.0 | 0.0 | 0.00 | 0.11 | 0.00 | 79 | 1012.7 |
| 20260508055122 | 50 | 325 | 0.0 | 0.0 | 0.00 | 0.11 | 0.00 | 80 | 1012.7 |
| 20260508054628 | 50 | 325 | 0.0 | 0.0 | 0.00 | 0.11 | 0.00 | 80 | 1012.7 |
| 20260508054136 | 50 | 345 | 0.0 | 0.0 | 0.00 | 0.11 | 0.00 | 80 | 1012.7 |
| 20260508053624 | 50 | 345 | 0.0 | 0.0 | 0.00 | 0.11 | 0.00 | 79 | 1012.7 |
| 20260508053132 | 51 | 316 | 0.0 | 0.0 | 0.00 | 0.11 | 0.00 | 78 | 1012.6 |
| 20260508052640 | 51 | 316 | 0.0 | 1.0 | 0.00 | 0.11 | 0.00 | 78 | 1012.5 |
| 20260508052128 | 51 | 316 | 0.0 | 2.0 | 0.00 | 0.11 | 0.00 | 78 | 1012.5 |
| 20260508051617 | 51 | 316 | 0.0 | 3.0 | 0.00 | 0.11 | 0.00 | 79 | 1012.5 |
| 20260508051125 | 50 | 318 | 1.0 | 3.0 | 0.00 | 0.11 | 0.00 | 79 | 1012.4 |
| 20260508050614 | 50 | 315 | 1.0 | 3.0 | 0.00 | 0.11 | 0.00 | 78 | 1012.3 |
| 20260508050123 | 51 | 292 | 0.0 | 3.0 | 0.00 | 0.11 | 0.00 | 78 | 1012.3 |
| 20260508045632 | 51 | 312 | 1.0 | 4.0 | 0.00 | 0.16 | 0.00 | 78 | 1012.3 |
| 20260508045120 | 51 | 318 | 1.0 | 4.0 | 0.00 | 0.16 | 0.00 | 78 | 1012.3 |
| 20260508044630 | 51 | 315 | 1.0 | 3.0 | 0.00 | 0.16 | 0.00 | 78 | 1012.2 |
| 20260508044119 | 51 | 308 | 0.0 | 3.0 | 0.00 | 0.16 | 0.00 | 77 | 1012.2 |
| 20260508043627 | 51 | 303 | 0.0 | 3.0 | 0.00 | 0.16 | 0.00 | 77 | 1012.1 |
| 20260508043135 | 51 | 313 | 0.0 | 3.0 | 0.00 | 0.16 | 0.00 | 76 | 1012.1 |
| 20260508042623 | 51 | 303 | 1.0 | 3.0 | 0.00 | 0.16 | 0.00 | 76 | 1012.1 |
| 20260508042128 | 51 | 318 | 0.0 | 3.0 | 0.00 | 0.16 | 0.00 | 77 | 1012.1 |
| 20260508041616 | 51 | 299 | 1.0 | 5.0 | 0.00 | 0.16 | 0.00 | 77 | 1012.0 |
| 20260508041124 | 51 | 296 | 0.0 | 5.0 | 0.00 | 0.16 | 0.00 | 77 | 1011.9 |
| 20260508040616 | 51 | 311 | 2.0 | 5.0 | 0.00 | 0.16 | 0.00 | 77 | 1011.8 |
| 20260508040123 | 51 | 319 | 1.0 | 4.0 | 0.00 | 0.16 | 0.00 | 77 | 1011.9 |
| 20260508035628 | 51 | 306 | 1.0 | 4.0 | 0.00 | 0.16 | 0.16 | 77 | 1011.8 |
| 20260508035117 | 51 | 319 | 1.0 | 4.0 | 0.00 | 0.16 | 0.16 | 77 | 1011.8 |
| 20260508034627 | 51 | 309 | 1.0 | 5.0 | 0.00 | 0.16 | 0.16 | 76 | 1011.7 |
| 20260508034114 | 51 | 298 | 3.0 | 5.0 | 0.00 | 0.16 | 0.16 | 76 | 1011.7 |
| 20260508033644 | 51 | 282 | 1.0 | 4.0 | 0.00 | 0.16 | 0.16 | 76 | 1011.8 |
| 20260508033151 | 52 | 278 | 1.0 | 4.0 | 0.00 | 0.16 | 0.16 | 76 | 1011.8 |
| 20260508032619 | 52 | 243 | 0.0 | 4.0 | 0.00 | 0.16 | 0.16 | 75 | 1011.7 |
| 20260508032127 | 52 | 286 | 0.0 | 4.0 | 0.00 | 0.16 | 0.16 | 75 | 1011.7 |
| 20260508031636 | 52 | 326 | 1.0 | 4.0 | 0.00 | 0.16 | 0.16 | 74 | 1011.7 |
| 20260508031125 | 52 | 312 | 0.0 | 4.0 | 0.00 | 0.16 | 0.16 | 74 | 1011.6 |
| 20260508030632 | 52 | 293 | 1.0 | 4.0 | 0.00 | 0.16 | 0.16 | 74 | 1011.7 |
| 20260508030121 | 52 | 315 | 2.0 | 5.0 | 0.00 | 0.16 | 0.16 | 74 | 1011.7 |
| 20260508025627 | 52 | 295 | 1.0 | 7.0 | 0.00 | 0.16 | 0.16 | 73 | 1011.6 |
| 20260508025114 | 53 | 282 | 2.0 | 7.0 | 0.00 | 0.16 | 0.16 | 73 | 1011.6 |
| 20260508024624 | 53 | 304 | 0.0 | 5.0 | 0.00 | 0.16 | 0.16 | 72 | 1011.6 |
| 20260508024152 | 53 | 280 | 2.0 | 5.0 | 0.00 | 0.16 | 0.16 | 72 | 1011.6 |
| 20260508023620 | 53 | 304 | 1.0 | 5.0 | 0.00 | 0.16 | 0.16 | 72 | 1011.6 |
| 20260508023129 | 53 | 294 | 1.0 | 4.0 | 0.00 | 0.16 | 0.16 | 72 | 1011.6 |
| 20260508022618 | 53 | 307 | 1.0 | 5.0 | 0.00 | 0.16 | 0.16 | 72 | 1011.6 |
| 20260508022147 | 54 | 297 | 1.0 | 5.0 | 0.00 | 0.16 | 0.16 | 71 | 1011.6 |
| 20260508021634 | 54 | 288 | 2.0 | 7.0 | 0.00 | 0.16 | 0.16 | 71 | 1011.6 |
| 20260508021122 | 54 | 301 | 2.0 | 7.0 | 0.00 | 0.16 | 0.16 | 70 | 1011.6 |
| 20260508020631 | 54 | 313 | 3.0 | 7.0 | 0.00 | 0.16 | 0.16 | 70 | 1011.4 |
| 20260508020120 | 54 | 304 | 1.0 | 4.0 | 0.00 | 0.16 | 0.16 | 70 | 1011.3 |
| 20260508015647 | 54 | 301 | 1.0 | 4.0 | 0.00 | 0.16 | 0.16 | 70 | 1011.2 |
| 20260508015136 | 54 | 205 | 2.0 | 4.0 | 0.00 | 0.16 | 0.16 | 69 | 1011.3 |
| 20260508014619 | 55 | 310 | 1.0 | 4.0 | 0.00 | 0.16 | 0.16 | 69 | 1011.4 |
| 20260508014129 | 55 | 294 | 2.0 | 4.0 | 0.00 | 0.16 | 0.16 | 68 | 1011.2 |
| 20260508013637 | 55 | 281 | 0.0 | 10.0 | 0.00 | 0.16 | 0.16 | 68 | 1011.2 |
| 20260508013124 | 55 | 295 | 1.0 | 10.0 | 0.00 | 0.16 | 0.16 | 67 | 1011.2 |
| 20260508012632 | 55 | 319 | 2.0 | 5.0 | 0.00 | 0.16 | 0.16 | 67 | 1011.2 |
| 20260508012120 | 55 | 160 | 1.0 | 8.0 | 0.00 | 0.16 | 0.16 | 67 | 1011.1 |
| 20260508011629 | 55 | 255 | 0.0 | 8.0 | 0.00 | 0.16 | 0.16 | 67 | 1011.0 |
| 20260508011117 | 55 | 294 | 2.0 | 5.0 | 0.00 | 0.16 | 0.16 | 66 | 1011.0 |
| 20260508010625 | 55 | 247 | 2.0 | 5.0 | 0.00 | 0.16 | 0.16 | 66 | 1010.8 |
| 20260508010154 | 55 | 231 | 1.0 | 4.0 | 0.00 | 0.16 | 0.16 | 66 | 1010.8 |
| 20260508005621 | 56 | 207 | 1.0 | 6.0 | 0.00 | 0.16 | 0.16 | 65 | 1010.8 |
| 20260508005129 | 56 | 242 | 1.0 | 6.0 | 0.00 | 0.16 | 0.16 | 64 | 1010.6 |
| 20260508004638 | 56 | 175 | 1.0 | 7.0 | 0.00 | 0.16 | 0.16 | 64 | 1010.5 |
| 20260508004126 | 56 | 319 | 2.0 | 9.0 | 0.00 | 0.16 | 0.16 | 64 | 1010.4 |
| 20260508003615 | 56 | 228 | 3.0 | 9.0 | 0.00 | 0.16 | 0.16 | 63 | 1010.4 |
| 20260508003123 | 56 | 38 | 1.0 | 14.0 | 0.00 | 0.16 | 0.16 | 62 | 1010.3 |
| 20260508002628 | 56 | 220 | 3.0 | 14.0 | 0.00 | 0.16 | 0.16 | 62 | 1010.3 |
| 20260508002118 | 57 | 219 | 4.0 | 11.0 | 0.00 | 0.16 | 0.16 | 62 | 1010.4 |
| 20260508001626 | 57 | 244 | 2.0 | 11.0 | 0.00 | 0.16 | 0.16 | 61 | 1010.3 |
| 20260508001114 | 57 | 245 | 4.0 | 9.0 | 0.00 | 0.16 | 0.16 | 61 | 1010.2 |
| 20260508000624 | 57 | 101 | 4.0 | 9.0 | 0.00 | 0.16 | 0.16 | 60 | 1010.1 |
| 20260508000132 | 58 | 24 | 3.0 | 9.0 | 0.00 | 0.16 | 0.16 | 60 | 1010.2 |
| 20260507235621 | 58 | 184 | 2.0 | 9.0 | 0.00 | 0.16 | 0.16 | 60 | 1010.1 |
| 20260507235129 | 58 | 160 | 3.0 | 10.0 | 0.00 | 0.16 | 0.16 | 59 | 1010.0 |
| 20260507234618 | 58 | 260 | 6.0 | 10.0 | 0.00 | 0.16 | 0.16 | 59 | 1009.8 |
| 20260507234127 | 59 | 210 | 5.0 | 10.0 | 0.00 | 0.16 | 0.16 | 59 | 1009.8 |
| 20260507233615 | 59 | 111 | 1.0 | 10.0 | 0.00 | 0.16 | 0.16 | 58 | 1009.8 |
| 20260507233124 | 59 | 184 | 3.0 | 10.0 | 0.00 | 0.16 | 0.16 | 57 | 1009.7 |
| 20260507232654 | 59 | 202 | 2.0 | 12.0 | 0.00 | 0.16 | 0.16 | 57 | 1009.7 |
| 20260507232122 | 59 | 122 | 4.0 | 12.0 | 0.00 | 0.16 | 0.16 | 57 | 1009.5 |
| 20260507231651 | 60 | 153 | 2.0 | 11.0 | 0.00 | 0.16 | 0.16 | 57 | 1009.4 |
| 20260507231138 | 60 | 170 | 4.0 | 10.0 | 0.00 | 0.16 | 0.16 | 56 | 1009.4 |
| 20260507230642 | 61 | 250 | 4.0 | 10.0 | 0.00 | 0.16 | 0.16 | 55 | 1009.3 |
| 20260507230131 | 61 | 255 | 5.0 | 16.0 | 0.00 | 0.16 | 0.16 | 54 | 1009.3 |
| 20260507225638 | 61 | 188 | 3.0 | 16.0 | 0.00 | 0.16 | 0.16 | 53 | 1009.3 |
| 20260507225126 | 62 | 239 | 4.0 | 11.0 | 0.00 | 0.16 | 0.16 | 51 | 1009.1 |
| 20260507224635 | 63 | 165 | 5.0 | 11.0 | 0.00 | 0.16 | 0.16 | 49 | 1009.1 |
| 20260507224123 | 64 | 165 | 4.0 | 10.0 | 0.00 | 0.16 | 0.16 | 46 | 1009.0 |
| 20260507223632 | 64 | 165 | 0.0 | 3.0 | 0.00 | 0.16 | 0.16 | 40 | 1008.9 |
| 20260507223120 | 64 | 165 | 1.0 | 3.0 | 0.00 | 0.16 | 0.16 | 41 | 1008.8 |
| 20260507222629 | 64 | 165 | 0.0 | 4.0 | 0.00 | 0.16 | 0.16 | 40 | 1008.9 |
| 20260507222117 | 63 | 165 | 2.0 | 4.0 | 0.00 | 0.16 | 0.16 | 38 | 1008.9 |
| 20260507221627 | 64 | 93 | 1.0 | 4.0 | 0.00 | 0.16 | 0.16 | 38 | 1008.9 |
| 20260507221136 | 64 | 165 | 1.0 | 4.0 | 0.00 | 0.16 | 0.16 | 38 | 1008.8 |
| 20260507220644 | 65 | 165 | 1.0 | 4.0 | 0.00 | 0.16 | 0.16 | 38 | 1008.7 |
| 20260507220132 | 66 | 165 | 0.0 | 1.0 | 0.00 | 0.16 | 0.16 | 36 | 1008.7 |
| 20260507215621 | 65 | 132 | 0.0 | 2.0 | 0.00 | 0.16 | 0.16 | 38 | 1008.9 |
| 20260507215145 | 65 | 277 | 0.0 | 6.0 | 0.00 | 0.16 | 0.16 | 36 | 1008.8 |
| 20260507214632 | 65 | 115 | 2.0 | 6.0 | 0.00 | 0.16 | 0.16 | 39 | 1008.8 |
| 20260507214141 | 65 | 297 | 1.0 | 4.0 | 0.00 | 0.16 | 0.16 | 38 | 1009.0 |
| 20260507213629 | 66 | 97 | 1.0 | 4.0 | 0.00 | 0.16 | 0.16 | 37 | 1009.0 |
| 20260507213137 | 66 | 277 | 1.0 | 4.0 | 0.00 | 0.16 | 0.16 | 37 | 1009.1 |
| 20260507212626 | 66 | 17 | 1.0 | 4.0 | 0.00 | 0.16 | 0.16 | 36 | 1009.1 |
| 20260507212135 | 66 | 20 | 1.0 | 4.0 | 0.00 | 0.16 | 0.16 | 37 | 1009.1 |
| 20260507211623 | 66 | 326 | 2.0 | 7.0 | 0.00 | 0.16 | 0.16 | 37 | 1009.1 |
| 20260507211132 | 66 | 268 | 4.0 | 7.0 | 0.00 | 0.16 | 0.16 | 35 | 1009.2 |
| 20260507210619 | 66 | 9 | 0.0 | 6.0 | 0.00 | 0.16 | 0.16 | 35 | 1009.2 |
| 20260507210129 | 66 | 26 | 3.0 | 6.0 | 0.00 | 0.16 | 0.16 | 35 | 1009.3 |
| 20260507205619 | 66 | 22 | 1.0 | 6.0 | 0.00 | 0.16 | 0.16 | 35 | 1009.2 |
| 20260507205126 | 67 | 29 | 1.0 | 6.0 | 0.00 | 0.16 | 0.16 | 37 | 1009.2 |
| 20260507204616 | 67 | 324 | 2.0 | 5.0 | 0.00 | 0.16 | 0.16 | 35 | 1009.2 |
| 20260507204125 | 66 | 16 | 2.0 | 4.0 | 0.00 | 0.16 | 0.16 | 37 | 1009.3 |
| 20260507203615 | 66 | 70 | 0.0 | 3.0 | 0.00 | 0.16 | 0.16 | 37 | 1009.2 |
| 20260507203138 | 66 | 330 | 0.0 | 4.0 | 0.00 | 0.16 | 0.16 | 40 | 1009.2 |
| 20260507202627 | 66 | 91 | 0.0 | 8.0 | 0.00 | 0.16 | 0.16 | 40 | 1009.0 |
| 20260507202116 | 67 | 312 | 3.0 | 8.0 | 0.00 | 0.16 | 0.16 | 37 | 1009.0 |
| 20260507201623 | 67 | 284 | 3.0 | 9.0 | 0.00 | 0.16 | 0.16 | 35 | 1009.0 |
| 20260507201133 | 67 | 315 | 2.0 | 6.0 | 0.00 | 0.16 | 0.16 | 37 | 1009.0 |
| 20260507200622 | 67 | 353 | 1.0 | 5.0 | 0.00 | 0.16 | 0.16 | 37 | 1009.1 |
| 20260507200131 | 67 | 322 | 0.0 | 3.0 | 0.00 | 0.16 | 0.16 | 39 | 1009.0 |
| 20260507195619 | 66 | 305 | 1.0 | 4.0 | 0.00 | 0.16 | 0.16 | 38 | 1009.2 |
| 20260507195129 | 66 | 109 | 1.0 | 5.0 | 0.00 | 0.16 | 0.16 | 39 | 1009.2 |
| 20260507194618 | 66 | 40 | 3.0 | 5.0 | 0.00 | 0.16 | 0.16 | 35 | 1009.2 |
| 20260507194147 | 66 | 49 | 1.0 | 5.0 | 0.00 | 0.16 | 0.16 | 41 | 1009.4 |
| 20260507193635 | 66 | 89 | 1.0 | 8.0 | 0.00 | 0.16 | 0.16 | 36 | 1009.4 |
| 20260507193123 | 66 | 26 | 2.0 | 8.0 | 0.00 | 0.16 | 0.16 | 37 | 1009.6 |
| 20260507192632 | 67 | 57 | 2.0 | 4.0 | 0.00 | 0.16 | 0.16 | 41 | 1009.5 |
| 20260507192120 | 67 | 317 | 0.0 | 7.0 | 0.00 | 0.16 | 0.16 | 37 | 1009.6 |
| 20260507191645 | 67 | 340 | 3.0 | 7.0 | 0.00 | 0.16 | 0.16 | 37 | 1009.6 |
| 20260507191133 | 67 | 266 | 1.0 | 6.0 | 0.00 | 0.16 | 0.16 | 37 | 1009.6 |
| 20260507190622 | 67 | 45 | 2.0 | 6.0 | 0.00 | 0.16 | 0.16 | 36 | 1009.6 |
| 20260507190131 | 66 | 20 | 1.0 | 6.0 | 0.00 | 0.16 | 0.16 | 45 | 1009.7 |
| 20260507185620 | 66 | 323 | 0.0 | 4.0 | 0.00 | 0.16 | 0.16 | 38 | 1009.7 |
| 20260507185128 | 67 | 13 | 1.0 | 4.0 | 0.00 | 0.16 | 0.16 | 39 | 1009.8 |
| 20260507184617 | 65 | 295 | 1.0 | 4.0 | 0.00 | 0.16 | 0.16 | 41 | 1009.9 |
| 20260507184145 | 66 | 7 | 1.0 | 7.0 | 0.00 | 0.16 | 0.16 | 44 | 1010.0 |
| 20260507183614 | 66 | 101 | 1.0 | 7.0 | 0.00 | 0.16 | 0.16 | 40 | 1010.0 |
| 20260507183143 | 66 | 355 | 3.0 | 7.0 | 0.00 | 0.16 | 0.16 | 37 | 1010.0 |
| 20260507182630 | 66 | 7 | 0.0 | 4.0 | 0.00 | 0.16 | 0.16 | 42 | 1010.1 |
| 20260507182119 | 66 | 289 | 1.0 | 7.0 | 0.00 | 0.16 | 0.16 | 37 | 1010.1 |
| 20260507181647 | 66 | 299 | 3.0 | 7.0 | 0.00 | 0.16 | 0.16 | 40 | 1010.1 |
| 20260507181116 | 65 | 190 | 1.0 | 5.0 | 0.00 | 0.16 | 0.16 | 41 | 1010.2 |
| 20260507180625 | 66 | 305 | 2.0 | 8.0 | 0.00 | 0.16 | 0.16 | 39 | 1010.3 |
| 20260507180114 | 65 | 165 | 1.0 | 8.0 | 0.00 | 0.16 | 0.16 | 45 | 1010.5 |
| 20260507175622 | 66 | 165 | 2.0 | 6.0 | 0.00 | 0.16 | 0.16 | 40 | 1010.7 |
| 20260507175127 | 65 | 165 | 1.0 | 4.0 | 0.00 | 0.16 | 0.16 | 43 | 1010.7 |
| 20260507174616 | 64 | 165 | 0.0 | 6.0 | 0.00 | 0.16 | 0.16 | 40 | 1010.8 |
| 20260507174126 | 64 | 165 | 2.0 | 10.0 | 0.00 | 0.16 | 0.16 | 42 | 1010.9 |
| 20260507173614 | 65 | 165 | 2.0 | 11.0 | 0.00 | 0.16 | 0.16 | 38 | 1011.0 |
| 20260507173142 | 65 | 165 | 2.0 | 9.0 | 0.00 | 0.16 | 0.16 | 43 | 1010.9 |
| 20260507172630 | 65 | 165 | 1.0 | 6.0 | 0.00 | 0.16 | 0.16 | 40 | 1011.0 |
| 20260507172120 | 64 | 165 | 1.0 | 6.0 | 0.00 | 0.16 | 0.16 | 42 | 1010.9 |
| 20260507171628 | 64 | 165 | 2.0 | 11.0 | 0.00 | 0.16 | 0.16 | 43 | 1011.0 |
| 20260507171117 | 64 | 165 | 3.0 | 11.0 | 0.00 | 0.16 | 0.16 | 40 | 1011.0 |
| 20260507170626 | 63 | 165 | 3.0 | 8.0 | 0.00 | 0.16 | 0.16 | 40 | 1011.1 |
| 20260507170115 | 63 | 165 | 0.0 | 3.0 | 0.00 | 0.16 | 0.16 | 43 | 1011.2 |
| 20260507165624 | 63 | 165 | 1.0 | 5.0 | 0.00 | 0.16 | 0.16 | 42 | 1011.4 |
| 20260507165132 | 63 | 165 | 1.0 | 6.0 | 0.00 | 0.16 | 0.16 | 42 | 1011.4 |
| 20260507164642 | 63 | 165 | 2.0 | 6.0 | 0.00 | 0.16 | 0.16 | 44 | 1011.6 |
| 20260507164129 | 62 | 165 | 1.0 | 5.0 | 0.00 | 0.16 | 0.16 | 41 | 1011.6 |
| 20260507163619 | 62 | 165 | 0.0 | 6.0 | 0.00 | 0.16 | 0.16 | 49 | 1011.7 |
| 20260507163147 | 62 | 165 | 1.0 | 6.0 | 0.00 | 0.16 | 0.16 | 43 | 1011.7 |
| 20260507162615 | 62 | 165 | 0.0 | 2.0 | 0.00 | 0.16 | 0.16 | 47 | 1012.0 |
| 20260507162119 | 61 | 221 | 0.0 | 2.0 | 0.00 | 0.16 | 0.16 | 49 | 1011.9 |
| 20260507161628 | 61 | 331 | 0.0 | 2.0 | 0.00 | 0.16 | 0.16 | 50 | 1012.0 |
| 20260507161137 | 60 | 301 | 0.0 | 3.0 | 0.00 | 0.16 | 0.16 | 51 | 1012.1 |
| 20260507160625 | 60 | 203 | 0.0 | 5.0 | 0.00 | 0.16 | 0.16 | 47 | 1012.2 |
| 20260507160154 | 60 | 61 | 0.0 | 5.0 | 0.00 | 0.16 | 0.16 | 48 | 1012.2 |
| 20260507155621 | 60 | 28 | 0.0 | 5.0 | 0.00 | 0.17 | 0.16 | 51 | 1012.5 |
| 20260507155151 | 59 | 262 | 2.0 | 5.0 | 0.00 | 0.17 | 0.16 | 53 | 1012.4 |
| 20260507154618 | 58 | 288 | 0.0 | 7.0 | 0.00 | 0.17 | 0.16 | 55 | 1012.4 |
| 20260507154127 | 59 | 322 | 2.0 | 7.0 | 0.00 | 0.17 | 0.16 | 53 | 1012.4 |
| 20260507153617 | 58 | 300 | 1.0 | 4.0 | 0.00 | 0.17 | 0.16 | 54 | 1012.5 |
| 20260507153145 | 56 | 336 | 1.0 | 3.0 | 0.00 | 0.17 | 0.16 | 59 | 1012.5 |
| 20260507152632 | 56 | 14 | 1.0 | 3.0 | 0.00 | 0.17 | 0.16 | 56 | 1012.5 |
| 20260507152121 | 56 | 2 | 0.0 | 1.0 | 0.00 | 0.17 | 0.16 | 62 | 1012.7 |
| 20260507151646 | 56 | 350 | 0.0 | 3.0 | 0.00 | 0.17 | 0.16 | 60 | 1012.7 |
| 20260507151114 | 55 | 350 | 0.0 | 3.0 | 0.00 | 0.17 | 0.16 | 63 | 1012.7 |
| 20260507150623 | 54 | 165 | 0.0 | 0.0 | 0.00 | 0.17 | 0.16 | 64 | 1012.7 |
| 20260507150132 | 55 | 69 | 0.0 | 0.0 | 0.00 | 0.17 | 0.16 | 68 | 1012.7 |
| 20260507145620 | 55 | 355 | 0.0 | 1.0 | 0.00 | 0.24 | 0.16 | 66 | 1012.9 |
| 20260507145128 | 54 | 358 | 0.0 | 1.0 | 0.00 | 0.24 | 0.16 | 67 | 1012.9 |
| 20260507144617 | 54 | 12 | 0.0 | 4.0 | 0.00 | 0.24 | 0.16 | 70 | 1012.9 |
| 20260507144125 | 54 | 7 | 1.0 | 4.0 | 0.00 | 0.24 | 0.16 | 68 | 1013.0 |
| 20260507143615 | 53 | 76 | 0.0 | 0.0 | 0.00 | 0.24 | 0.16 | 70 | 1013.0 |
| 20260507143124 | 53 | 76 | 0.0 | 0.0 | 0.00 | 0.24 | 0.16 | 69 | 1013.2 |
| 20260507142613 | 54 | 82 | 0.0 | 0.0 | 0.00 | 0.24 | 0.16 | 69 | 1013.1 |
| 20260507142141 | 53 | 47 | 0.0 | 1.0 | 0.00 | 0.24 | 0.16 | 70 | 1013.2 |
| 20260507141630 | 53 | 26 | 0.0 | 1.0 | 0.00 | 0.24 | 0.16 | 68 | 1013.1 |
| 20260507141138 | 53 | 103 | 0.0 | 3.0 | 0.00 | 0.24 | 0.16 | 71 | 1013.0 |
| 20260507140626 | 53 | 25 | 0.0 | 3.0 | 0.00 | 0.24 | 0.16 | 72 | 1013.1 |
| 20260507140116 | 53 | 18 | 0.0 | 1.0 | 0.00 | 0.24 | 0.16 | 74 | 1013.3 |
| 20260507135623 | 53 | 64 | 0.0 | 3.0 | 0.00 | 0.31 | 0.16 | 75 | 1013.4 |
| 20260507135114 | 53 | 22 | 0.0 | 3.0 | 0.00 | 0.31 | 0.16 | 75 | 1013.4 |
| 20260507134621 | 53 | 7 | 0.0 | 2.0 | 0.00 | 0.31 | 0.16 | 75 | 1013.4 |
| 20260507134147 | 53 | 357 | 0.0 | 2.0 | 0.00 | 0.31 | 0.16 | 74 | 1013.6 |
| 20260507133632 | 53 | 15 | 0.0 | 2.0 | 0.00 | 0.31 | 0.16 | 73 | 1013.7 |
| 20260507133120 | 53 | 359 | 0.0 | 0.0 | 0.00 | 0.31 | 0.16 | 75 | 1013.5 |
| 20260507132629 | 53 | 359 | 0.0 | 0.0 | 0.00 | 0.31 | 0.16 | 79 | 1013.5 |
| 20260507132139 | 53 | 344 | 0.0 | 0.0 | 0.00 | 0.31 | 0.16 | 76 | 1013.5 |
| 20260507131626 | 53 | 35 | 0.0 | 0.0 | 0.00 | 0.31 | 0.16 | 73 | 1013.6 |
| 20260507131115 | 53 | 36 | 0.0 | 0.0 | 0.00 | 0.31 | 0.16 | 78 | 1013.3 |
| 20260507130644 | 53 | 36 | 0.0 | 0.0 | 0.00 | 0.31 | 0.16 | 81 | 1013.4 |
| 20260507130131 | 53 | 36 | 0.0 | 0.0 | 0.00 | 0.31 | 0.16 | 79 | 1013.4 |
| 20260507125640 | 53 | 36 | 0.0 | 0.0 | 0.00 | 0.33 | 0.16 | 81 | 1013.3 |
| 20260507125129 | 53 | 36 | 0.0 | 0.0 | 0.00 | 0.33 | 0.16 | 80 | 1013.3 |
| 20260507124617 | 53 | 37 | 0.0 | 3.0 | 0.00 | 0.33 | 0.16 | 81 | 1013.2 |
| 20260507124125 | 53 | 337 | 1.0 | 3.0 | 0.00 | 0.33 | 0.16 | 81 | 1013.4 |
| 20260507123635 | 53 | 345 | 0.0 | 0.0 | 0.00 | 0.33 | 0.16 | 86 | 1013.4 |
| 20260507123117 | 53 | 359 | 0.0 | 0.0 | 0.00 | 0.33 | 0.16 | 86 | 1013.3 |
| 20260507122626 | 53 | 359 | 0.0 | 0.0 | 0.00 | 0.33 | 0.16 | 87 | 1013.3 |
| 20260507122115 | 53 | 359 | 0.0 | 2.0 | 0.00 | 0.33 | 0.16 | 88 | 1013.3 |
| 20260507121645 | 53 | 358 | 0.0 | 2.0 | 0.00 | 0.33 | 0.16 | 89 | 1013.1 |